This demonstration page uses our WeatherBlox Daily Observations layout. Learn more.

Left ArrowRight Arrow

Hourly Observations for June 7, 2021

Temp ( °F °C ) Dew Point ( °F °C ) Humidity (%) Winds ( mph kmh ) Pressure ( in mb ) Visibility ( mi km ) Precip ( " mm )
12:53 am 00:53 Clear 87 30.6 48 8.9 26 26 NE 15 24 29.61 1003 10 16 0.00 0.00
1:27 am 01:27 Clear 85 29.4 49 9.4 29 29 ESE 13 20 29.57 1001 10 16 0.00 0.00
1:53 am 01:53 Clear 85 29.4 53 11.7 33 33 SE 12 19 29.61 1003 10 16 0.00 0.00
2:53 am 02:53 Clear 81 27.2 64 17.8 57 57 SSE 13 20 29.60 1002 10 16 0.00 0.00
3:53 am 03:53 Clear 79 26.1 64 17.8 60 60 SSE 12 19 29.60 1002 10 16 0.00 0.00
4:53 am 04:53 Clear 76 24.4 65 18.3 69 69 SSW 8 13 29.62 1003 10 16 0.00 0.00
5:53 am 05:53 Clear 75 23.9 65 18.3 71 71 W 6 9 29.65 1004 10 16 0.00 0.00
6:53 am 06:53 Sunny 72 22.2 65 18.3 79 79 NE 6 9 29.67 1005 10 16 0.00 0.00
7:53 am 07:53 Sunny 76 24.4 66 18.9 72 72 NE 6 9 29.66 1004 10 16 0.00 0.00
8:53 am 08:53 Sunny 81 27.2 65 18.3 58 58 Calm 29.67 1005 10 16 0.00 0.00
9:53 am 09:53 Sunny 84 28.9 66 18.9 55 55 ESE 3 6 29.68 1005 10 16 0.00 0.00
10:53 am 10:53 Sunny 87 30.6 64 17.8 46 46 VRB 5 7 29.69 1005 10 16 0.00 0.00
11:53 am 11:53 Sunny 92 33.3 63 17.2 38 38 Calm 29.69 1005 10 16 0.00 0.00
12:53 pm 12:53 Sunny 94 34.4 60 15.6 32 32 WSW 7 11 29.68 1005 10 16 0.00 0.00
1:53 pm 13:53 Sunny 99 37.2 49 9.4 18 18 WNW 8 13 29.66 1005 10 16 0.00 0.00
2:53 pm 14:53 Sunny 100 37.8 42 5.6 14 14 WSW 7 11 29.64 1004 10 16 0.00 0.00
3:53 pm 15:53 Sunny 104 40 40 4.4 11 11 NW 10 17 29.62 1003 10 16 0.00 0.00
4:53 pm 16:53 Sunny 103 39.4 38 3.3 11 11 VRB 6 9 29.60 1002 10 16 0.00 0.00
5:53 pm 17:53 Sunny 105 40.6 34 1.1 8 8 W 20 31 29.58 1002 10 16 0.00 0.00
6:53 pm 18:53 Sunny 103 39.4 33 0.6 9 9 W 13 20 29.57 1002 10 16 0.00 0.00
7:53 pm 19:53 Sunny 101 38.3 33 0.6 9 9 WSW 15 24 29.58 1002 10 16 0.00 0.00
8:53 pm 20:53 Sunny 96 35.6 33 0.6 11 11 W 9 15 29.59 1002 10 16 0.00 0.00
9:53 pm 21:53 Clear 87 30.6 36 2.2 16 16 WNW 12 19 29.62 1003 10 16 0.00 0.00
10:53 pm 22:53 Clear 83 28.3 35 1.7 18 18 WNW 8 13 29.64 1004 10 16 0.00 0.00
11:53 pm 23:53 Clear 80 26.7 38 3.3 22 22 WNW 5 7 29.66 1004 10 16 0.00 0.00

Powered by AerisWeather